Time,TemperatureF,DewpointF,PressureIn,WindDirection,WindDirectionDegrees,WindSpeedMPH,WindSpeedGustMPH,Humidity,HourlyPrecipIn,Conditions,Clouds,dailyrainin,SoftwareType,DateUTC
2013-02-22 00:00:00,34.4,30.1,29.98,North,350,1.0,2.0,84,0.00,,,0.00,Wunderground v.1.15,2013-02-22 08:00:00,
2013-02-22 00:02:00,34.6,30.0,29.98,North,350,3.0,3.0,83,0.00,,,0.00,Wunderground v.1.15,2013-02-22 08:02:00,
2013-02-22 00:04:00,34.6,29.7,29.98,North,350,3.0,3.0,82,0.00,,,0.00,Wunderground v.1.15,2013-02-22 08:04:00,
2013-02-22 00:05:00,34.7,29.8,29.98,North,350,3.0,3.0,82,0.00,,,0.00,Wunderground v.1.15,2013-02-22 08:05:00,
2013-02-22 00:10:00,34.6,29.1,29.98,North,350,3.0,3.0,80,0.00,,,0.00,Wunderground v.1.15,2013-02-22 08:10:00,
2013-02-22 00:11:00,34.4,28.9,29.98,North,350,2.0,3.0,80,0.00,,,0.00,Wunderground v.1.15,2013-02-22 08:11:00,
2013-02-22 00:12:00,34.3,29.1,29.98,North,350,3.0,3.0,81,0.00,,,0.00,Wunderground v.1.15,2013-02-22 08:12:00,
2013-02-22 00:17:00,34.3,29.4,29.98,North,350,3.0,4.0,82,0.00,,,0.00,Wunderground v.1.15,2013-02-22 08:17:00,
2013-02-22 00:18:00,34.4,29.5,29.98,North,350,4.0,4.0,82,0.00,,,0.00,Wunderground v.1.15,2013-02-22 08:18:00,
2013-02-22 00:21:00,34.7,29.8,29.98,North,350,3.0,4.0,82,0.00,,,0.00,Wunderground v.1.15,2013-02-22 08:21:00,
2013-02-22 00:22:00,35.0,30.1,29.98,North,350,4.0,4.0,82,0.00,,,0.00,Wunderground v.1.15,2013-02-22 08:22:00,
2013-02-22 00:25:00,36.0,30.7,29.98,North,350,2.0,3.0,81,0.00,,,0.00,Wunderground v.1.15,2013-02-22 08:25:00,
2013-02-22 00:26:00,36.2,30.6,29.98,North,350,1.0,3.0,80,0.00,,,0.00,Wunderground v.1.15,2013-02-22 08:26:00,
2013-02-22 00:27:00,36.5,30.6,29.98,North,350,2.0,3.0,79,0.00,,,0.00,Wunderground v.1.15,2013-02-22 08:27:00,
2013-02-22 00:32:00,36.9,30.4,29.98,North,350,2.0,3.0,77,0.00,,,0.00,Wunderground v.1.15,2013-02-22 08:32:00,
2013-02-22 00:33:00,36.9,30.4,29.98,North,350,0.0,2.0,77,0.00,,,0.00,Wunderground v.1.15,2013-02-22 08:33:00,
2013-02-22 00:34:00,36.8,30.3,29.98,North,350,2.0,2.0,77,0.00,,,0.00,Wunderground v.1.15,2013-02-22 08:34:00,
2013-02-22 00:38:00,36.8,30.3,29.98,North,350,2.0,3.0,77,0.00,,,0.00,Wunderground v.1.15,2013-02-22 08:38:00,
2013-02-22 00:41:00,37.1,30.6,29.98,North,350,2.0,3.0,77,0.00,,,0.00,Wunderground v.1.15,2013-02-22 08:41:00,
2013-02-22 00:43:00,37.4,30.8,29.98,North,350,2.0,2.0,77,0.00,,,0.00,Wunderground v.1.15,2013-02-22 08:43:00,
2013-02-22 00:44:00,37.5,30.9,29.98,North,350,1.0,2.0,77,0.00,,,0.00,Wunderground v.1.15,2013-02-22 08:44:00,
2013-02-22 00:45:00,37.7,30.8,29.98,North,350,2.0,2.0,76,0.00,,,0.00,Wunderground v.1.15,2013-02-22 08:45:00,
2013-02-22 00:49:00,38.0,30.8,29.98,North,350,2.0,2.0,75,0.00,,,0.00,Wunderground v.1.15,2013-02-22 08:49:00,
2013-02-22 00:51:00,38.2,30.6,29.98,North,350,1.0,2.0,74,0.00,,,0.00,Wunderground v.1.15,2013-02-22 08:51:00,
2013-02-22 00:52:00,38.2,30.6,29.98,North,350,2.0,2.0,74,0.00,,,0.00,Wunderground v.1.15,2013-02-22 08:52:00,
2013-02-22 00:53:00,38.0,30.1,29.98,North,350,2.0,2.0,73,0.00,,,0.00,Wunderground v.1.15,2013-02-22 08:53:00,
2013-02-22 00:57:00,36.6,29.4,29.98,North,350,4.0,4.0,75,0.00,,,0.00,Wunderground v.1.15,2013-02-22 08:57:00,
2013-02-22 01:00:00,36.2,29.7,29.97,North,350,2.0,4.0,77,0.00,,,0.00,Wunderground v.1.15,2013-02-22 09:00:00,
2013-02-22 01:01:00,36.1,29.6,29.97,North,350,2.0,4.0,77,0.00,,,0.00,Wunderground v.1.15,2013-02-22 09:01:00,
2013-02-22 01:03:00,35.8,29.3,29.97,North,350,2.0,3.0,77,0.00,,,0.00,Wunderground v.1.15,2013-02-22 09:03:00,
2013-02-22 01:05:00,35.4,29.2,29.97,North,350,3.0,3.0,78,0.00,,,0.00,Wunderground v.1.15,2013-02-22 09:05:00,
2013-02-22 01:08:00,35.2,29.6,29.97,North,355,4.0,4.0,80,0.00,,,0.00,Wunderground v.1.15,2013-02-22 09:08:00,
2013-02-22 01:10:00,35.2,29.6,29.97,North,5,5.0,5.0,80,0.00,,,0.00,Wunderground v.1.15,2013-02-22 09:10:00,
2013-02-22 01:13:00,35.6,30.3,29.97,North,5,3.0,4.0,81,0.00,,,0.00,Wunderground v.1.15,2013-02-22 09:13:00,
2013-02-22 01:14:00,35.6,30.0,29.97,North,5,3.0,4.0,80,0.00,,,0.00,Wunderground v.1.15,2013-02-22 09:14:00,
2013-02-22 01:16:00,35.7,30.1,29.97,North,5,1.0,4.0,80,0.00,,,0.00,Wunderground v.1.15,2013-02-22 09:16:00,
2013-02-22 01:19:00,35.8,29.9,29.97,North,5,2.0,4.0,79,0.00,,,0.00,Wunderground v.1.15,2013-02-22 09:19:00,
2013-02-22 01:20:00,35.7,29.8,29.97,North,5,0.0,4.0,79,0.00,,,0.00,Wunderground v.1.15,2013-02-22 09:20:00,
2013-02-22 01:22:00,35.6,30.0,29.97,North,5,2.0,4.0,80,0.00,,,0.00,Wunderground v.1.15,2013-02-22 09:22:00,
2013-02-22 01:27:00,35.3,30.1,29.97,North,5,2.0,2.0,81,0.00,,,0.00,Wunderground v.1.15,2013-02-22 09:27:00,
2013-02-22 01:28:00,35.4,30.1,29.98,North,5,0.0,2.0,81,0.00,,,0.00,Wunderground v.1.15,2013-02-22 09:28:00,
2013-02-22 01:32:00,35.5,30.2,29.98,North,5,2.0,2.0,81,0.00,,,0.00,Wunderground v.1.15,2013-02-22 09:32:00,
2013-02-22 01:36:00,35.9,30.6,29.98,North,5,1.0,2.0,81,0.00,,,0.00,Wunderground v.1.15,2013-02-22 09:36:00,
2013-02-22 01:37:00,36.1,30.5,29.98,North,5,2.0,2.0,80,0.00,,,0.00,Wunderground v.1.15,2013-02-22 09:37:00,
2013-02-22 01:38:00,36.2,30.6,29.98,North,5,2.0,2.0,80,0.00,,,0.00,Wunderground v.1.15,2013-02-22 09:38:00,
2013-02-22 01:41:00,36.5,30.6,29.98,North,5,1.0,2.0,79,0.00,,,0.00,Wunderground v.1.15,2013-02-22 09:41:00,
2013-02-22 01:44:00,36.8,30.6,29.98,North,5,1.0,1.0,78,0.00,,,0.00,Wunderground v.1.15,2013-02-22 09:44:00,
2013-02-22 01:46:00,37.1,30.9,29.98,North,5,0.0,1.0,78,0.00,,,0.00,Wunderground v.1.15,2013-02-22 09:46:00,
2013-02-22 01:47:00,37.1,30.9,29.98,North,5,0.0,1.0,78,0.00,,,0.00,Wunderground v.1.15,2013-02-22 09:47:00,
2013-02-22 01:49:00,37.3,30.7,29.98,North,5,0.0,1.0,77,0.00,,,0.00,Wunderground v.1.15,2013-02-22 09:49:00,
2013-02-22 01:53:00,37.4,30.8,29.98,North,5,2.0,2.0,77,0.00,,,0.00,Wunderground v.1.15,2013-02-22 09:53:00,
2013-02-22 01:54:00,37.4,30.8,29.98,North,5,2.0,2.0,77,0.00,,,0.00,Wunderground v.1.15,2013-02-22 09:54:00,
2013-02-22 01:58:00,37.6,30.7,29.97,North,5,2.0,3.0,76,0.00,,,0.00,Wunderground v.1.15,2013-02-22 09:58:00,
2013-02-22 02:03:00,37.5,30.6,29.97,North,5,2.0,3.0,76,0.00,,,0.00,Wunderground v.1.15,2013-02-22 10:03:00,
2013-02-22 02:08:00,37.4,30.5,29.97,North,5,3.0,4.0,76,0.00,,,0.00,Wunderground v.1.15,2013-02-22 10:08:00,
2013-02-22 02:13:00,37.6,30.4,29.97,North,5,3.0,3.0,75,0.00,,,0.00,Wunderground v.1.15,2013-02-22 10:13:00,
2013-02-22 02:18:00,37.8,30.6,29.97,North,5,3.0,4.0,75,0.00,,,0.00,Wunderground v.1.15,2013-02-22 10:18:00,
2013-02-22 02:23:00,37.5,30.6,29.97,NE,34,2.0,3.0,76,0.00,,,0.00,Wunderground v.1.15,2013-02-22 10:23:00,
2013-02-22 02:28:00,36.8,30.3,29.96,NE,34,2.0,3.0,77,0.00,,,0.00,Wunderground v.1.15,2013-02-22 10:28:00,
2013-02-22 02:33:00,36.5,30.3,29.96,NE,34,1.0,2.0,78,0.00,,,0.00,Wunderground v.1.15,2013-02-22 10:33:00,
2013-02-22 02:38:00,36.5,30.3,29.95,NE,34,0.0,3.0,78,0.00,,,0.00,Wunderground v.1.15,2013-02-22 10:38:00,
2013-02-22 02:43:00,36.8,30.3,29.95,NE,34,0.0,2.0,77,0.00,,,0.00,Wunderground v.1.15,2013-02-22 10:43:00,
2013-02-22 02:48:00,37.3,30.4,29.95,NE,34,3.0,3.0,76,0.00,,,0.00,Wunderground v.1.15,2013-02-22 10:48:00,
2013-02-22 02:53:00,37.9,30.4,29.95,NE,34,0.0,1.0,74,0.00,,,0.00,Wunderground v.1.15,2013-02-22 10:53:00,
2013-02-22 02:58:00,38.2,30.3,29.96,NE,34,2.0,2.0,73,0.00,,,0.00,Wunderground v.1.15,2013-02-22 10:58:00,
2013-02-22 03:03:00,38.1,30.2,29.96,NE,34,3.0,3.0,73,0.00,,,0.00,Wunderground v.1.15,2013-02-22 11:03:00,
2013-02-22 03:08:00,38.1,30.2,29.96,NE,34,2.0,4.0,73,0.00,,,0.00,Wunderground v.1.15,2013-02-22 11:08:00,
2013-02-22 03:13:00,38.0,29.8,29.96,NE,34,2.0,3.0,72,0.00,,,0.00,Wunderground v.1.15,2013-02-22 11:13:00,
2013-02-22 03:18:00,37.9,30.0,29.95,NE,34,2.0,3.0,73,0.00,,,0.00,Wunderground v.1.15,2013-02-22 11:18:00,
2013-02-22 03:23:00,37.6,29.7,29.95,NE,34,2.0,3.0,73,0.00,,,0.00,Wunderground v.1.15,2013-02-22 11:23:00,
2013-02-22 03:28:00,38.0,29.8,29.96,NE,34,2.0,3.0,72,0.00,,,0.00,Wunderground v.1.15,2013-02-22 11:28:00,
2013-02-22 03:33:00,38.2,30.0,29.96,NE,34,3.0,3.0,72,0.00,,,0.00,Wunderground v.1.15,2013-02-22 11:33:00,
2013-02-22 03:38:00,38.2,30.0,29.96,NE,34,2.0,3.0,72,0.00,,,0.00,Wunderground v.1.15,2013-02-22 11:38:00,
2013-02-22 03:43:00,38.4,29.8,29.96,NE,34,1.0,2.0,71,0.00,,,0.00,Wunderground v.1.15,2013-02-22 11:43:00,
2013-02-22 03:48:00,38.6,29.7,29.96,NE,34,0.0,2.0,70,0.00,,,0.00,Wunderground v.1.15,2013-02-22 11:48:00,
2013-02-22 03:53:00,38.6,29.7,29.96,NE,34,0.0,0.0,70,0.00,,,0.00,Wunderground v.1.15,2013-02-22 11:53:00,
2013-02-22 03:58:00,38.6,29.7,29.95,NE,34,0.0,0.0,70,0.00,,,0.00,Wunderground v.1.15,2013-02-22 11:58:00,
2013-02-22 04:03:00,38.6,30.4,29.95,NE,34,0.0,0.0,72,0.00,,,0.00,Wunderground v.1.15,2013-02-22 12:03:00,
2013-02-22 04:08:00,38.2,30.0,29.95,NE,34,0.0,0.0,72,0.00,,,0.00,Wunderground v.1.15,2013-02-22 12:08:00,
2013-02-22 04:13:00,37.6,29.4,29.95,NE,34,0.0,0.0,72,0.00,,,0.00,Wunderground v.1.15,2013-02-22 12:13:00,
2013-02-22 04:18:00,37.3,29.4,29.95,NE,34,0.0,0.0,73,0.00,,,0.00,Wunderground v.1.15,2013-02-22 12:18:00,
2013-02-22 04:23:00,37.3,29.4,29.96,NE,34,2.0,3.0,73,0.00,,,0.00,Wunderground v.1.15,2013-02-22 12:23:00,
2013-02-22 04:28:00,37.5,29.6,29.95,NNE,28,2.0,6.0,73,0.00,,,0.00,Wunderground v.1.15,2013-02-22 12:28:00,
2013-02-22 04:33:00,37.5,29.6,29.95,NNE,28,2.0,3.0,73,0.00,,,0.00,Wunderground v.1.15,2013-02-22 12:33:00,
2013-02-22 04:38:00,37.3,29.4,29.96,NNE,28,2.0,3.0,73,0.00,,,0.00,Wunderground v.1.15,2013-02-22 12:38:00,
2013-02-22 04:43:00,37.1,29.2,29.95,NNE,28,2.0,3.0,73,0.00,,,0.00,Wunderground v.1.15,2013-02-22 12:43:00,
2013-02-22 04:48:00,36.8,29.0,29.95,NNE,28,1.0,3.0,73,0.00,,,0.00,Wunderground v.1.15,2013-02-22 12:48:00,
2013-02-22 04:53:00,36.5,29.0,29.96,NNE,28,1.0,2.0,74,0.00,,,0.00,Wunderground v.1.15,2013-02-22 12:53:00,
2013-02-22 04:58:00,36.6,29.1,29.96,NNE,28,2.0,3.0,74,0.00,,,0.00,Wunderground v.1.15,2013-02-22 12:58:00,
2013-02-22 05:03:00,36.6,29.1,29.95,NNE,28,2.0,3.0,74,0.00,,,0.00,Wunderground v.1.15,2013-02-22 13:03:00,
2013-02-22 05:08:00,36.8,29.6,29.96,NNE,28,2.0,3.0,75,0.00,,,0.00,Wunderground v.1.15,2013-02-22 13:08:00,
2013-02-22 05:13:00,36.4,29.2,29.95,NNE,28,2.0,3.0,75,0.00,,,0.00,Wunderground v.1.15,2013-02-22 13:13:00,
2013-02-22 05:18:00,35.9,29.1,29.95,NNE,28,2.0,3.0,76,0.00,,,0.00,Wunderground v.1.15,2013-02-22 13:18:00,
2013-02-22 05:23:00,35.7,29.2,29.95,NNE,28,2.0,3.0,77,0.00,,,0.00,Wunderground v.1.15,2013-02-22 13:23:00,
2013-02-22 05:28:00,36.5,30.0,29.95,NNE,28,1.0,4.0,77,0.00,,,0.00,Wunderground v.1.15,2013-02-22 13:28:00,
2013-02-22 05:33:00,37.6,30.1,29.94,NNE,22,0.0,2.0,74,0.00,,,0.00,Wunderground v.1.15,2013-02-22 13:33:00,
2013-02-22 05:38:00,38.0,30.1,29.94,NNE,22,2.0,4.0,73,0.00,,,0.00,Wunderground v.1.15,2013-02-22 13:38:00,
2013-02-22 05:43:00,38.4,29.8,29.94,NNE,20,2.0,2.0,71,0.00,,,0.00,Wunderground v.1.15,2013-02-22 13:43:00,
2013-02-22 05:48:00,38.5,29.9,29.93,NNE,20,3.0,4.0,71,0.00,,,0.00,Wunderground v.1.15,2013-02-22 13:48:00,
2013-02-22 05:53:00,38.4,29.8,29.94,NNE,20,0.0,2.0,71,0.00,,,0.00,Wunderground v.1.15,2013-02-22 13:53:00,
2013-02-22 05:58:00,38.0,29.4,29.94,NNE,20,2.0,4.0,71,0.00,,,0.00,Wunderground v.1.15,2013-02-22 13:58:00,
2013-02-22 06:03:00,37.9,30.0,29.94,NNE,18,4.0,5.0,73,0.00,,,0.00,Wunderground v.1.15,2013-02-22 14:03:00,
2013-02-22 06:08:00,37.9,30.4,29.94,NNW,337,5.0,8.0,74,0.00,,,0.00,Wunderground v.1.15,2013-02-22 14:08:00,
2013-02-22 06:13:00,38.0,30.4,29.94,NNW,332,3.0,5.0,74,0.00,,,0.00,Wunderground v.1.15,2013-02-22 14:13:00,
2013-02-22 06:18:00,38.1,30.5,29.95,NNW,329,2.0,7.0,74,0.00,,,0.00,Wunderground v.1.15,2013-02-22 14:18:00,
2013-02-22 06:23:00,38.1,30.9,29.94,NNW,329,3.0,4.0,75,0.00,,,0.00,Wunderground v.1.15,2013-02-22 14:23:00,
2013-02-22 06:28:00,38.2,31.0,29.94,NNW,327,3.0,6.0,75,0.00,,,0.00,Wunderground v.1.15,2013-02-22 14:28:00,
2013-02-22 06:33:00,38.5,30.9,29.94,WNW,302,6.0,8.0,74,0.00,,,0.00,Wunderground v.1.15,2013-02-22 14:33:00,
2013-02-22 06:38:00,39.1,31.2,29.94,West,277,2.0,9.0,73,0.00,,,0.00,Wunderground v.1.15,2013-02-22 14:38:00,
2013-02-22 06:43:00,39.5,30.9,29.94,WSW,248,6.0,7.0,71,0.00,,,0.00,Wunderground v.1.15,2013-02-22 14:43:00,
2013-02-22 06:48:00,40.0,31.0,29.93,WSW,256,6.0,9.0,70,0.00,,,0.00,Wunderground v.1.15,2013-02-22 14:48:00,
2013-02-22 06:53:00,40.2,30.8,29.93,WSW,252,4.0,5.0,69,0.00,,,0.00,Wunderground v.1.15,2013-02-22 14:53:00,
2013-02-22 06:58:00,40.0,31.0,29.93,WSW,252,3.0,5.0,70,0.00,,,0.00,Wunderground v.1.15,2013-02-22 14:58:00,
2013-02-22 07:03:00,39.5,30.9,29.93,WSW,252,2.0,2.0,71,0.00,,,0.00,Wunderground v.1.15,2013-02-22 15:03:00,
2013-02-22 07:08:00,39.1,30.8,29.93,WSW,252,0.0,3.0,72,0.00,,,0.00,Wunderground v.1.15,2013-02-22 15:08:00,
2013-02-22 07:13:00,38.7,30.8,29.93,WSW,252,0.0,1.0,73,0.00,,,0.00,Wunderground v.1.15,2013-02-22 15:13:00,
2013-02-22 07:18:00,38.6,31.0,29.93,WSW,252,0.0,1.0,74,0.00,,,0.00,Wunderground v.1.15,2013-02-22 15:18:00,
2013-02-22 07:23:00,38.3,30.7,29.93,WSW,252,1.0,2.0,74,0.00,,,0.00,Wunderground v.1.15,2013-02-22 15:23:00,
2013-02-22 07:28:00,38.0,30.8,29.93,WSW,252,2.0,4.0,75,0.00,,,0.00,Wunderground v.1.15,2013-02-22 15:28:00,
2013-02-22 07:33:00,37.9,31.0,29.92,WSW,252,1.0,3.0,76,0.00,,,0.00,Wunderground v.1.15,2013-02-22 15:33:00,
2013-02-22 07:38:00,37.8,30.9,29.92,WSW,252,0.0,5.0,76,0.00,,,0.00,Wunderground v.1.15,2013-02-22 15:38:00,
2013-02-22 07:43:00,37.8,30.9,29.92,WSW,252,0.0,2.0,76,0.00,,,0.00,Wunderground v.1.15,2013-02-22 15:43:00,
2013-02-22 07:48:00,38.0,31.1,29.92,WSW,252,5.0,5.0,76,0.00,,,0.00,Wunderground v.1.15,2013-02-22 15:48:00,
2013-02-22 07:53:00,38.0,31.1,29.92,WSW,252,2.0,3.0,76,0.00,,,0.00,Wunderground v.1.15,2013-02-22 15:53:00,
2013-02-22 07:58:00,37.9,31.0,29.91,WSW,250,4.0,5.0,76,0.00,,,0.00,Wunderground v.1.15,2013-02-22 15:58:00,
2013-02-22 08:03:00,37.7,31.1,29.91,SW,236,5.0,5.0,77,0.00,,,0.00,Wunderground v.1.15,2013-02-22 16:03:00,
2013-02-22 08:08:00,37.3,31.1,29.91,SSW,198,4.0,8.0,78,0.00,,,0.00,Wunderground v.1.15,2013-02-22 16:08:00,
2013-02-22 08:13:00,37.1,31.2,29.91,SSW,194,2.0,5.0,79,0.00,,,0.00,Wunderground v.1.15,2013-02-22 16:13:00,
2013-02-22 08:18:00,37.0,31.1,29.90,SSW,194,2.0,6.0,79,0.00,,,0.00,Wunderground v.1.15,2013-02-22 16:18:00,
2013-02-22 08:23:00,37.0,31.4,29.91,SSW,194,1.0,3.0,80,0.00,,,0.00,Wunderground v.1.15,2013-02-22 16:23:00,
2013-02-22 08:28:00,37.1,31.5,29.90,SSW,194,2.0,5.0,80,0.00,,,0.00,Wunderground v.1.15,2013-02-22 16:28:00,
2013-02-22 08:33:00,37.1,31.5,29.91,SSW,194,0.0,2.0,80,0.00,,,0.00,Wunderground v.1.15,2013-02-22 16:33:00,
2013-02-22 08:38:00,37.3,31.7,29.91,SSW,194,0.0,2.0,80,0.00,,,0.00,Wunderground v.1.15,2013-02-22 16:38:00,
2013-02-22 08:43:00,37.3,31.7,29.91,SSW,194,0.0,0.0,80,0.00,,,0.00,Wunderground v.1.15,2013-02-22 16:43:00,
2013-02-22 08:48:00,37.4,31.8,29.91,SSW,194,0.0,0.0,80,0.00,,,0.00,Wunderground v.1.15,2013-02-22 16:48:00,
2013-02-22 08:53:00,37.5,31.6,29.90,SSW,194,1.0,2.0,79,0.00,,,0.00,Wunderground v.1.15,2013-02-22 16:53:00,
2013-02-22 08:58:00,37.6,31.7,29.91,SSW,194,0.0,3.0,79,0.00,,,0.00,Wunderground v.1.15,2013-02-22 16:58:00,
2013-02-22 09:03:00,37.8,31.9,29.90,SSW,194,0.0,1.0,79,0.00,,,0.00,Wunderground v.1.15,2013-02-22 17:03:00,
2013-02-22 09:08:00,38.0,31.7,29.90,SSW,194,4.0,6.0,78,0.00,,,0.00,Wunderground v.1.15,2013-02-22 17:08:00,
2013-02-22 09:13:00,38.4,31.8,29.90,SSW,194,2.0,3.0,77,0.00,,,0.00,Wunderground v.1.15,2013-02-22 17:13:00,
2013-02-22 09:18:00,38.4,31.8,29.89,SSW,194,3.0,4.0,77,0.00,,,0.00,Wunderground v.1.15,2013-02-22 17:18:00,
2013-02-22 09:23:00,38.3,31.7,29.89,SSW,194,1.0,3.0,77,0.00,,,0.00,Wunderground v.1.15,2013-02-22 17:23:00,
2013-02-22 09:28:00,38.3,31.7,29.89,SSW,194,2.0,3.0,77,0.00,,,0.00,Wunderground v.1.15,2013-02-22 17:28:00,
2013-02-22 09:33:00,38.4,31.8,29.89,SSW,194,0.0,1.0,77,0.00,,,0.00,Wunderground v.1.15,2013-02-22 17:33:00,
2013-02-22 09:38:00,38.6,31.7,29.89,SSW,194,0.0,2.0,76,0.00,,,0.00,Wunderground v.1.15,2013-02-22 17:38:00,
2013-02-22 09:43:00,38.8,31.9,29.89,SSW,194,0.0,0.0,76,0.00,,,0.00,Wunderground v.1.15,2013-02-22 17:43:00,
2013-02-22 09:48:00,38.9,31.6,29.88,SSW,194,0.0,3.0,75,0.00,,,0.00,Wunderground v.1.15,2013-02-22 17:48:00,
2013-02-22 09:53:00,39.2,32.3,29.88,SSW,194,0.0,1.0,76,0.00,,,0.00,Wunderground v.1.15,2013-02-22 17:53:00,
2013-02-22 09:58:00,39.3,32.0,29.87,SSW,194,0.0,1.0,75,0.00,,,0.00,Wunderground v.1.15,2013-02-22 17:58:00,
2013-02-22 10:03:00,39.4,31.8,29.87,SSW,194,0.0,0.0,74,0.00,,,0.00,Wunderground v.1.15,2013-02-22 18:03:00,
2013-02-22 10:08:00,39.7,32.1,29.87,SSW,194,0.0,1.0,74,0.00,,,0.00,Wunderground v.1.15,2013-02-22 18:08:00,
2013-02-22 10:13:00,39.6,31.7,29.87,SSW,194,2.0,2.0,73,0.00,,,0.00,Wunderground v.1.15,2013-02-22 18:13:00,
2013-02-22 10:18:00,39.5,31.6,29.86,SSW,194,1.0,3.0,73,0.00,,,0.00,Wunderground v.1.15,2013-02-22 18:18:00,
2013-02-22 10:23:00,39.4,31.5,29.85,SSW,194,2.0,3.0,73,0.00,,,0.00,Wunderground v.1.15,2013-02-22 18:23:00,
2013-02-22 10:28:00,39.2,31.6,29.85,SSW,194,2.0,5.0,74,0.00,,,0.00,Wunderground v.1.15,2013-02-22 18:28:00,
2013-02-22 10:33:00,39.1,31.8,29.84,SSW,194,2.0,3.0,75,0.00,,,0.00,Wunderground v.1.15,2013-02-22 18:33:00,
2013-02-22 10:38:00,39.1,31.5,29.84,SSW,194,1.0,3.0,74,0.00,,,0.00,Wunderground v.1.15,2013-02-22 18:38:00,
2013-02-22 10:43:00,39.2,31.6,29.84,SSW,194,1.0,1.0,74,0.00,,,0.00,Wunderground v.1.15,2013-02-22 18:43:00,
2013-02-22 10:48:00,39.2,31.6,29.84,SSW,194,1.0,2.0,74,0.00,,,0.00,Wunderground v.1.15,2013-02-22 18:48:00,
2013-02-22 10:53:00,39.3,31.7,29.84,SSW,194,0.0,1.0,74,0.00,,,0.00,Wunderground v.1.15,2013-02-22 18:53:00,
2013-02-22 10:58:00,39.5,31.9,29.83,SSW,194,1.0,2.0,74,0.00,,,0.00,Wunderground v.1.15,2013-02-22 18:58:00,
2013-02-22 11:03:00,39.6,32.0,29.83,SSW,194,2.0,2.0,74,0.00,,,0.00,Wunderground v.1.15,2013-02-22 19:03:00,
2013-02-22 11:08:00,39.8,32.2,29.82,SSW,194,1.0,3.0,74,0.00,,,0.00,Wunderground v.1.15,2013-02-22 19:08:00,
2013-02-22 11:13:00,40.2,32.6,29.82,SSW,194,1.0,2.0,74,0.00,,,0.00,Wunderground v.1.15,2013-02-22 19:13:00,
2013-02-22 11:18:00,40.4,32.4,29.82,SSW,194,0.0,3.0,73,0.00,,,0.00,Wunderground v.1.15,2013-02-22 19:18:00,
2013-02-22 11:23:00,40.7,33.1,29.82,SSW,194,1.0,1.0,74,0.00,,,0.00,Wunderground v.1.15,2013-02-22 19:23:00,
2013-02-22 11:28:00,40.9,33.2,29.81,SSW,194,0.0,2.0,74,0.00,,,0.00,Wunderground v.1.15,2013-02-22 19:28:00,
2013-02-22 11:33:00,41.2,33.2,29.80,SSW,194,1.0,2.0,73,0.00,,,0.00,Wunderground v.1.15,2013-02-22 19:33:00,
2013-02-22 11:38:00,41.4,33.4,29.80,SSW,194,4.0,4.0,73,0.00,,,0.00,Wunderground v.1.15,2013-02-22 19:38:00,
2013-02-22 11:43:00,41.7,33.3,29.80,SSW,194,2.0,2.0,72,0.00,,,0.00,Wunderground v.1.15,2013-02-22 19:43:00,
2013-02-22 11:48:00,42.3,33.9,29.79,SSE,165,9.0,11.0,72,0.00,,,0.00,Wunderground v.1.15,2013-02-22 19:48:00,
2013-02-22 11:53:00,43.0,33.9,29.79,SSE,164,7.0,8.0,70,0.00,,,0.00,Wunderground v.1.15,2013-02-22 19:53:00,
2013-02-22 11:58:00,43.3,33.8,29.79,SSE,164,5.0,9.0,69,0.00,,,0.00,Wunderground v.1.15,2013-02-22 19:58:00,
2013-02-22 12:03:00,43.6,34.5,29.78,SSE,165,2.0,6.0,70,0.00,,,0.00,Wunderground v.1.15,2013-02-22 20:03:00,
2013-02-22 12:08:00,43.8,34.6,29.78,SSE,165,4.0,6.0,70,0.00,,,0.00,Wunderground v.1.15,2013-02-22 20:08:00,
2013-02-22 12:13:00,44.0,34.5,29.77,SSE,168,5.0,8.0,69,0.00,,,0.00,Wunderground v.1.15,2013-02-22 20:13:00,
2013-02-22 12:18:00,44.3,34.4,29.76,South,175,7.0,8.0,68,0.00,,,0.00,Wunderground v.1.15,2013-02-22 20:18:00,
2013-02-22 12:23:00,44.9,34.6,29.76,SSW,208,10.0,14.0,67,0.00,,,0.00,Wunderground v.1.15,2013-02-22 20:23:00,
2013-02-22 12:28:00,45.6,34.9,29.76,SW,222,8.0,14.0,66,0.00,,,0.00,Wunderground v.1.15,2013-02-22 20:28:00,
2013-02-22 12:33:00,46.1,35.0,29.75,SSW,207,8.0,13.0,65,0.00,,,0.00,Wunderground v.1.15,2013-02-22 20:33:00,
2013-02-22 12:38:00,46.1,34.6,29.75,SSW,201,16.0,22.0,64,0.00,,,0.00,Wunderground v.1.15,2013-02-22 20:38:00,
2013-02-22 12:43:00,46.1,34.6,29.74,SW,219,17.0,22.0,64,0.00,,,0.00,Wunderground v.1.15,2013-02-22 20:43:00,
2013-02-22 12:48:00,46.2,35.1,29.74,SSW,199,14.0,24.0,65,0.00,,,0.00,Wunderground v.1.15,2013-02-22 20:48:00,
2013-02-22 12:53:00,46.4,34.9,29.73,SW,219,14.0,16.0,64,0.00,,,0.00,Wunderground v.1.15,2013-02-22 20:53:00,
2013-02-22 12:58:00,46.9,35.4,29.73,SSW,209,22.0,23.0,64,0.00,,,0.00,Wunderground v.1.15,2013-02-22 20:58:00,
2013-02-22 13:03:00,47.4,35.4,29.72,SW,215,15.0,23.0,63,0.00,,,0.00,Wunderground v.1.15,2013-02-22 21:03:00,
2013-02-22 13:08:00,47.6,35.6,29.71,SSW,209,13.0,25.0,63,0.00,,,0.00,Wunderground v.1.15,2013-02-22 21:08:00,
2013-02-22 13:13:00,47.6,35.6,29.71,SSW,202,18.0,20.0,63,0.00,,,0.00,Wunderground v.1.15,2013-02-22 21:13:00,
2013-02-22 13:18:00,47.5,35.5,29.70,South,188,18.0,27.0,63,0.00,,,0.00,Wunderground v.1.15,2013-02-22 21:18:00,
2013-02-22 13:23:00,47.7,36.1,29.70,South,185,16.0,24.0,64,0.00,,,0.00,Wunderground v.1.15,2013-02-22 21:23:00,
2013-02-22 13:28:00,48.1,36.1,29.69,SSW,202,23.0,25.0,63,0.00,,,0.00,Wunderground v.1.15,2013-02-22 21:28:00,
2013-02-22 13:33:00,48.4,36.0,29.70,SW,229,9.0,25.0,62,0.00,,,0.00,Wunderground v.1.15,2013-02-22 21:33:00,
2013-02-22 13:38:00,48.5,36.1,29.69,South,187,18.0,26.0,62,0.00,,,0.00,Wunderground v.1.15,2013-02-22 21:38:00,
2013-02-22 13:43:00,48.8,35.9,29.69,SW,215,22.0,22.0,61,0.00,,,0.00,Wunderground v.1.15,2013-02-22 21:43:00,
2013-02-22 13:48:00,48.8,35.5,29.68,South,173,20.0,31.0,60,0.00,,,0.00,Wunderground v.1.15,2013-02-22 21:48:00,
2013-02-22 13:53:00,48.6,35.7,29.68,SSW,207,16.0,22.0,61,0.00,,,0.00,Wunderground v.1.15,2013-02-22 21:53:00,
2013-02-22 13:58:00,48.8,35.9,29.68,South,184,15.0,28.0,61,0.00,,,0.00,Wunderground v.1.15,2013-02-22 21:58:00,
2013-02-22 14:03:00,48.9,35.6,29.68,SW,217,19.0,23.0,60,0.00,,,0.00,Wunderground v.1.15,2013-02-22 22:03:00,
2013-02-22 14:08:00,49.0,36.1,29.69,SW,229,12.0,24.0,61,0.00,,,0.00,Wunderground v.1.15,2013-02-22 22:08:00,
2013-02-22 14:13:00,49.2,35.9,29.69,South,172,21.0,21.0,60,0.00,,,0.00,Wunderground v.1.15,2013-02-22 22:13:00,
2013-02-22 14:18:00,49.1,36.2,29.68,South,175,16.0,25.0,61,0.00,,,0.00,Wunderground v.1.15,2013-02-22 22:18:00,
2013-02-22 14:23:00,49.1,35.8,29.68,SW,225,24.0,24.0,60,0.00,,,0.00,Wunderground v.1.15,2013-02-22 22:23:00,
2013-02-22 14:28:00,49.0,35.7,29.67,SSW,194,23.0,24.0,60,0.00,,,0.00,Wunderground v.1.15,2013-02-22 22:28:00,
2013-02-22 14:33:00,49.1,35.8,29.67,SW,234,15.0,19.0,60,0.00,,,0.00,Wunderground v.1.15,2013-02-22 22:33:00,
2013-02-22 14:38:00,49.2,35.5,29.66,SSW,208,18.0,27.0,59,0.00,,,0.00,Wunderground v.1.15,2013-02-22 22:38:00,
2013-02-22 14:43:00,49.3,35.6,29.66,SSW,202,16.0,21.0,59,0.00,,,0.00,Wunderground v.1.15,2013-02-22 22:43:00,
2013-02-22 14:48:00,49.6,36.3,29.65,SSW,210,8.0,26.0,60,0.00,,,0.00,Wunderground v.1.15,2013-02-22 22:48:00,
2013-02-22 14:53:00,49.4,35.7,29.65,SW,222,13.0,23.0,59,0.00,,,0.00,Wunderground v.1.15,2013-02-22 22:53:00,
2013-02-22 14:58:00,49.6,36.3,29.65,SW,228,8.0,23.0,60,0.00,,,0.00,Wunderground v.1.15,2013-02-22 22:58:00,
2013-02-22 15:03:00,49.7,35.9,29.65,SW,227,21.0,21.0,59,0.00,,,0.00,Wunderground v.1.15,2013-02-22 23:03:00,
2013-02-22 15:08:00,49.6,35.8,29.64,SSW,193,19.0,24.0,59,0.00,,,0.00,Wunderground v.1.15,2013-02-22 23:08:00,
2013-02-22 15:13:00,49.1,35.8,29.64,South,181,11.0,20.0,60,0.00,,,0.00,Wunderground v.1.15,2013-02-22 23:13:00,
2013-02-22 15:18:00,48.8,35.5,29.63,SSW,212,24.0,28.0,60,0.00,,,0.00,Wunderground v.1.15,2013-02-22 23:18:00,
2013-02-22 15:23:00,48.7,35.4,29.63,SW,227,15.0,20.0,60,0.00,,,0.00,Wunderground v.1.15,2013-02-22 23:23:00,
2013-02-22 15:28:00,48.6,35.3,29.63,SW,217,6.0,25.0,60,0.00,,,0.00,Wunderground v.1.15,2013-02-22 23:28:00,
2013-02-22 15:33:00,48.7,35.4,29.64,SW,221,18.0,20.0,60,0.00,,,0.00,Wunderground v.1.15,2013-02-22 23:33:00,
2013-02-22 15:38:00,48.7,35.4,29.64,SSW,207,14.0,24.0,60,0.00,,,0.00,Wunderground v.1.15,2013-02-22 23:38:00,
2013-02-22 15:43:00,48.6,35.7,29.63,SSW,202,8.0,14.0,61,0.00,,,0.00,Wunderground v.1.15,2013-02-22 23:43:00,
2013-02-22 15:48:00,48.4,36.0,29.63,SSW,207,10.0,15.0,62,0.00,,,0.00,Wunderground v.1.15,2013-02-22 23:48:00,
2013-02-22 15:53:00,48.3,36.3,29.63,SSW,205,9.0,11.0,63,0.00,,,0.00,Wunderground v.1.15,2013-02-22 23:53:00,
2013-02-22 15:58:00,48.2,36.6,29.62,SSW,208,11.0,11.0,64,0.00,,,0.00,Wunderground v.1.15,2013-02-22 23:58:00,
2013-02-22 16:03:00,48.2,36.6,29.62,SSW,207,8.0,9.0,64,0.00,,,0.00,Wunderground v.1.15,2013-02-23 00:03:00,
2013-02-22 16:08:00,48.2,36.2,29.62,SSW,213,9.0,12.0,63,0.00,,,0.00,Wunderground v.1.15,2013-02-23 00:08:00,
2013-02-22 16:13:00,48.0,36.8,29.62,SW,227,8.0,8.0,65,0.00,,,0.00,Wunderground v.1.15,2013-02-23 00:13:00,
2013-02-22 16:18:00,47.9,36.7,29.62,SW,224,8.0,11.0,65,0.00,,,0.00,Wunderground v.1.15,2013-02-23 00:18:00,
2013-02-22 16:23:00,47.8,37.0,29.62,WSW,245,8.0,9.0,66,0.00,,,0.00,Wunderground v.1.15,2013-02-23 00:23:00,
2013-02-22 16:28:00,47.8,36.2,29.62,SW,229,11.0,18.0,64,0.00,,,0.00,Wunderground v.1.15,2013-02-23 00:28:00,
2013-02-22 16:33:00,47.9,35.9,29.62,SW,233,20.0,22.0,63,0.00,,,0.00,Wunderground v.1.15,2013-02-23 00:33:00,
2013-02-22 16:38:00,48.1,35.7,29.63,SW,236,17.0,24.0,62,0.00,,,0.00,Wunderground v.1.15,2013-02-23 00:38:00,
2013-02-22 16:43:00,48.0,35.6,29.63,WSW,242,16.0,18.0,62,0.00,,,0.00,Wunderground v.1.15,2013-02-23 00:43:00,
2013-02-22 16:48:00,47.6,36.0,29.63,SW,224,14.0,23.0,64,0.00,,,0.00,Wunderground v.1.15,2013-02-23 00:48:00,
2013-02-22 16:53:00,47.4,35.8,29.63,SW,227,13.0,16.0,64,0.00,,,0.00,Wunderground v.1.15,2013-02-23 00:53:00,
2013-02-22 16:58:00,47.3,35.7,29.63,SW,229,18.0,19.0,64,0.00,,,0.00,Wunderground v.1.15,2013-02-23 00:58:00,
2013-02-22 17:03:00,47.4,35.8,29.63,SSW,198,9.0,17.0,64,0.00,,,0.00,Wunderground v.1.15,2013-02-23 01:03:00,
2013-02-22 17:08:00,47.5,35.1,29.63,SSW,211,16.0,23.0,62,0.00,,,0.00,Wunderground v.1.15,2013-02-23 01:08:00,
2013-02-22 17:13:00,47.7,35.3,29.63,SW,215,22.0,22.0,62,0.00,,,0.00,Wunderground v.1.15,2013-02-23 01:13:00,
2013-02-22 17:18:00,47.5,35.5,29.63,SSW,195,21.0,27.0,63,0.00,,,0.00,Wunderground v.1.15,2013-02-23 01:18:00,
2013-02-22 17:23:00,47.1,35.5,29.63,SW,215,18.0,23.0,64,0.00,,,0.00,Wunderground v.1.15,2013-02-23 01:23:00,
2013-02-22 17:28:00,46.8,35.3,29.63,SSW,200,17.0,25.0,64,0.00,,,0.00,Wunderground v.1.15,2013-02-23 01:28:00,
2013-02-22 17:33:00,46.5,35.4,29.64,South,183,13.0,21.0,65,0.00,,,0.00,Wunderground v.1.15,2013-02-23 01:33:00,
2013-02-22 17:38:00,46.4,35.3,29.64,SSW,206,19.0,24.0,65,0.00,,,0.00,Wunderground v.1.15,2013-02-23 01:38:00,
2013-02-22 17:43:00,46.3,35.6,29.64,SSW,204,18.0,22.0,66,0.00,,,0.00,Wunderground v.1.15,2013-02-23 01:43:00,
2013-02-22 17:48:00,46.1,35.4,29.64,South,191,14.0,22.0,66,0.00,,,0.00,Wunderground v.1.15,2013-02-23 01:48:00,
2013-02-22 17:53:00,46.1,35.4,29.64,SW,226,15.0,16.0,66,0.00,,,0.00,Wunderground v.1.15,2013-02-23 01:53:00,
2013-02-22 17:58:00,46.1,35.4,29.64,SSW,208,14.0,24.0,66,0.00,,,0.00,Wunderground v.1.15,2013-02-23 01:58:00,
2013-02-22 18:03:00,45.4,35.5,29.65,SSW,201,15.0,15.0,68,0.00,,,0.00,Wunderground v.1.15,2013-02-23 02:03:00,
2013-02-22 18:08:00,45.2,34.9,29.64,WSW,237,10.0,17.0,67,0.00,,,0.00,Wunderground v.1.15,2013-02-23 02:08:00,
2013-02-22 18:13:00,45.4,35.1,29.64,SW,235,10.0,12.0,67,0.00,,,0.00,Wunderground v.1.15,2013-02-23 02:13:00,
2013-02-22 18:18:00,44.8,35.6,29.65,SW,218,9.0,18.0,70,0.00,,,0.00,Wunderground v.1.15,2013-02-23 02:18:00,
2013-02-22 18:23:00,44.6,35.1,29.64,SW,236,7.0,11.0,69,0.00,,,0.00,Wunderground v.1.15,2013-02-23 02:23:00,
2013-02-22 18:28:00,44.5,35.0,29.64,WSW,240,11.0,15.0,69,0.00,,,0.00,Wunderground v.1.15,2013-02-23 02:28:00,
2013-02-22 18:33:00,44.1,34.2,29.64,SW,225,8.0,10.0,68,0.00,,,0.00,Wunderground v.1.15,2013-02-23 02:33:00,
2013-02-22 18:38:00,43.0,33.2,29.64,SW,228,9.0,11.0,68,0.00,,,0.00,Wunderground v.1.15,2013-02-23 02:38:00,
2013-02-22 18:43:00,42.3,33.6,29.64,SSW,211,3.0,8.0,71,0.00,,,0.00,Wunderground v.1.15,2013-02-23 02:43:00,
2013-02-22 18:48:00,41.7,33.7,29.64,SW,221,4.0,8.0,73,0.00,,,0.00,Wunderground v.1.15,2013-02-23 02:48:00,
2013-02-22 18:53:00,41.0,33.3,29.65,SW,215,5.0,5.0,74,0.00,,,0.00,Wunderground v.1.15,2013-02-23 02:53:00,
2013-02-22 18:58:00,40.5,33.2,29.65,SW,220,3.0,9.0,75,0.00,,,0.00,Wunderground v.1.15,2013-02-23 02:58:00,
2013-02-22 19:03:00,40.0,33.4,29.65,SW,217,5.0,6.0,77,0.00,,,0.00,Wunderground v.1.15,2013-02-23 03:03:00,
2013-02-22 19:08:00,39.6,32.7,29.66,West,272,2.0,7.0,76,0.00,,,0.00,Wunderground v.1.15,2013-02-23 03:08:00,
2013-02-22 19:13:00,39.5,33.2,29.66,WSW,249,3.0,5.0,78,0.00,,,0.00,Wunderground v.1.15,2013-02-23 03:13:00,
2013-02-22 19:18:00,40.4,33.1,29.66,WSW,253,7.0,12.0,75,0.00,,,0.00,Wunderground v.1.15,2013-02-23 03:18:00,
2013-02-22 19:23:00,41.0,32.3,29.66,WSW,254,6.0,8.0,71,0.00,,,0.00,Wunderground v.1.15,2013-02-23 03:23:00,
2013-02-22 19:28:00,41.4,31.6,29.66,West,262,6.0,9.0,68,0.00,,,0.00,Wunderground v.1.15,2013-02-23 03:28:00,
2013-02-22 19:33:00,41.2,31.1,29.66,West,273,8.0,8.0,67,0.00,,,0.00,Wunderground v.1.15,2013-02-23 03:33:00,
2013-02-22 19:38:00,40.7,30.6,29.66,West,280,4.0,9.0,67,0.00,,,0.00,Wunderground v.1.15,2013-02-23 03:38:00,
2013-02-22 19:43:00,40.1,30.4,29.67,West,274,8.0,8.0,68,0.00,,,0.00,Wunderground v.1.15,2013-02-23 03:43:00,
2013-02-22 19:48:00,40.4,29.6,29.67,West,281,11.0,13.0,65,0.00,,,0.00,Wunderground v.1.15,2013-02-23 03:48:00,
2013-02-22 19:53:00,42.1,28.4,29.67,West,275,12.0,18.0,58,0.00,,,0.00,Wunderground v.1.15,2013-02-23 03:53:00,
2013-02-22 19:58:00,42.7,28.5,29.67,West,259,24.0,24.0,57,0.00,,,0.00,Wunderground v.1.15,2013-02-23 03:58:00,
2013-02-22 20:03:00,42.5,29.2,29.67,WSW,244,20.0,23.0,59,0.00,,,0.00,Wunderground v.1.15,2013-02-23 04:03:00,
2013-02-22 20:08:00,42.0,29.1,29.67,West,262,13.0,24.0,60,0.00,,,0.00,Wunderground v.1.15,2013-02-23 04:08:00,
2013-02-22 20:13:00,41.8,28.9,29.67,WSW,256,21.0,22.0,60,0.00,,,0.00,Wunderground v.1.15,2013-02-23 04:13:00,
2013-02-22 20:18:00,41.9,29.0,29.68,West,263,19.0,22.0,60,0.00,,,0.00,Wunderground v.1.15,2013-02-23 04:18:00,
2013-02-22 20:23:00,41.9,28.6,29.68,WSW,248,10.0,15.0,59,0.00,,,0.00,Wunderground v.1.15,2013-02-23 04:23:00,
2013-02-22 20:28:00,41.8,28.9,29.68,WSW,255,8.0,17.0,60,0.00,,,0.00,Wunderground v.1.15,2013-02-23 04:28:00,
2013-02-22 20:33:00,41.4,28.5,29.68,WSW,238,9.0,12.0,60,0.00,,,0.00,Wunderground v.1.15,2013-02-23 04:33:00,
2013-02-22 20:38:00,41.8,27.2,29.67,West,263,7.0,22.0,56,0.00,,,0.00,Wunderground v.1.15,2013-02-23 04:38:00,
2013-02-22 20:43:00,41.5,26.5,29.67,West,269,13.0,13.0,55,0.00,,,0.00,Wunderground v.1.15,2013-02-23 04:43:00,
2013-02-22 20:48:00,41.1,25.3,29.67,SW,232,15.0,21.0,53,0.00,,,0.00,Wunderground v.1.15,2013-02-23 04:48:00,
2013-02-22 20:53:00,40.6,24.3,29.67,WSW,240,16.0,19.0,52,0.00,,,0.00,Wunderground v.1.15,2013-02-23 04:53:00,
2013-02-22 20:58:00,40.0,24.2,29.68,WSW,252,12.0,21.0,53,0.00,,,0.00,Wunderground v.1.15,2013-02-23 04:58:00,
2013-02-22 21:00:00,40.0,24.2,29.68,West,264,9.0,21.0,53,0.00,,,0.00,Wunderground v.1.15,2013-02-23 05:00:00,
2013-02-22 21:05:00,39.8,24.5,29.69,NW,318,9.0,14.0,54,0.00,,,0.00,Wunderground v.1.15,2013-02-23 05:05:00,
2013-02-22 21:10:00,38.5,24.6,29.69,West,281,6.0,14.0,57,0.00,,,0.00,Wunderground v.1.15,2013-02-23 05:10:00,
2013-02-22 21:15:00,39.5,23.8,29.69,WSW,239,12.0,13.0,53,0.00,,,0.00,Wunderground v.1.15,2013-02-23 05:15:00,
2013-02-22 21:20:00,39.6,23.4,29.69,West,271,6.0,13.0,52,0.00,,,0.00,Wunderground v.1.15,2013-02-23 05:20:00,
2013-02-22 21:25:00,39.0,23.7,29.69,West,274,6.0,8.0,54,0.00,,,0.00,Wunderground v.1.15,2013-02-23 05:25:00,
2013-02-22 21:30:00,38.6,23.4,29.69,WNW,284,6.0,9.0,54,0.00,,,0.00,Wunderground v.1.15,2013-02-23 05:30:00,
2013-02-22 21:35:00,38.5,23.3,29.70,West,275,7.0,10.0,54,0.00,,,0.00,Wunderground v.1.15,2013-02-23 05:35:00,
2013-02-22 21:40:00,38.4,23.2,29.70,West,279,8.0,10.0,54,0.00,,,0.00,Wunderground v.1.15,2013-02-23 05:40:00,
2013-02-22 21:45:00,38.7,23.5,29.71,West,277,11.0,16.0,54,0.00,,,0.00,Wunderground v.1.15,2013-02-23 05:45:00,
2013-02-22 21:50:00,38.7,23.9,29.71,West,281,9.0,16.0,55,0.00,,,0.00,Wunderground v.1.15,2013-02-23 05:50:00,
2013-02-22 21:55:00,38.6,23.8,29.71,West,261,6.0,11.0,55,0.00,,,0.00,Wunderground v.1.15,2013-02-23 05:55:00,
2013-02-22 22:00:00,38.7,23.5,29.72,West,265,7.0,13.0,54,0.00,,,0.00,Wunderground v.1.15,2013-02-23 06:00:00,
2013-02-22 22:05:00,38.7,23.5,29.71,West,275,8.0,12.0,54,0.00,,,0.00,Wunderground v.1.15,2013-02-23 06:05:00,
2013-02-22 22:10:00,39.0,23.3,29.72,WSW,244,10.0,18.0,53,0.00,,,0.00,Wunderground v.1.15,2013-02-23 06:10:00,
2013-02-22 22:15:00,39.1,23.4,29.72,West,261,11.0,15.0,53,0.00,,,0.00,Wunderground v.1.15,2013-02-23 06:15:00,
2013-02-22 22:17:00,39.1,23.4,29.72,West,270,7.0,15.0,53,0.00,,,0.00,Wunderground v.1.15,2013-02-23 06:17:00,
2013-02-22 22:18:00,39.0,23.3,29.72,West,271,9.0,15.0,53,0.00,,,0.00,Wunderground v.1.15,2013-02-23 06:18:00,
2013-02-22 22:23:00,38.8,23.1,29.72,West,277,9.0,10.0,53,0.00,,,0.00,Wunderground v.1.15,2013-02-23 06:23:00,
2013-02-22 22:28:00,38.6,23.4,29.72,WNW,284,8.0,11.0,54,0.00,,,0.00,Wunderground v.1.15,2013-02-23 06:28:00,
2013-02-22 22:33:00,38.3,23.1,29.72,WNW,288,8.0,10.0,54,0.00,,,0.00,Wunderground v.1.15,2013-02-23 06:33:00,
2013-02-22 22:38:00,38.0,22.8,29.73,WNW,288,6.0,10.0,54,0.00,,,0.00,Wunderground v.1.15,2013-02-23 06:38:00,
2013-02-22 22:43:00,37.5,22.8,29.73,West,271,6.0,6.0,55,0.00,,,0.00,Wunderground v.1.15,2013-02-23 06:43:00,
2013-02-22 22:48:00,36.8,23.0,29.74,West,279,3.0,7.0,57,0.00,,,0.00,Wunderground v.1.15,2013-02-23 06:48:00,
2013-02-22 22:53:00,36.2,22.8,29.74,WNW,291,4.0,4.0,58,0.00,,,0.00,Wunderground v.1.15,2013-02-23 06:53:00,
2013-02-22 22:58:00,36.1,22.7,29.75,WNW,296,2.0,6.0,58,0.00,,,0.00,Wunderground v.1.15,2013-02-23 06:58:00,
2013-02-22 23:03:00,35.5,22.6,29.75,WNW,301,5.0,5.0,59,0.00,,,0.00,Wunderground v.1.15,2013-02-23 07:03:00,
2013-02-22 23:08:00,35.5,22.2,29.75,NW,308,5.0,7.0,58,0.00,,,0.00,Wunderground v.1.15,2013-02-23 07:08:00,
2013-02-22 23:13:00,35.4,22.1,29.75,NW,306,7.0,7.0,58,0.00,,,0.00,Wunderground v.1.15,2013-02-23 07:13:00,
2013-02-22 23:18:00,35.8,22.5,29.75,NW,313,9.0,15.0,58,0.00,,,0.00,Wunderground v.1.15,2013-02-23 07:18:00,
2013-02-22 23:23:00,36.9,23.1,29.75,WNW,299,6.0,8.0,57,0.00,,,0.00,Wunderground v.1.15,2013-02-23 07:23:00,
2013-02-22 23:28:00,37.4,23.1,29.76,WNW,296,4.0,15.0,56,0.00,,,0.00,Wunderground v.1.15,2013-02-23 07:28:00,
2013-02-22 23:33:00,37.5,23.2,29.75,WNW,283,8.0,9.0,56,0.00,,,0.00,Wunderground v.1.15,2013-02-23 07:33:00,
2013-02-22 23:38:00,37.5,23.2,29.76,WNW,287,10.0,15.0,56,0.00,,,0.00,Wunderground v.1.15,2013-02-23 07:38:00,
2013-02-22 23:43:00,37.5,23.6,29.76,WNW,291,6.0,10.0,57,0.00,,,0.00,Wunderground v.1.15,2013-02-23 07:43:00,
2013-02-22 23:48:00,37.3,23.4,29.76,West,281,7.0,12.0,57,0.00,,,0.00,Wunderground v.1.15,2013-02-23 07:48:00,
2013-02-22 23:53:00,37.2,23.4,29.76,WNW,288,11.0,11.0,57,0.00,,,0.00,Wunderground v.1.15,2013-02-23 07:53:00,
2013-02-22 23:54:00,37.3,23.4,29.76,WNW,288,8.0,11.0,57,0.00,,,0.00,Wunderground v.1.15,2013-02-23 07:54:00,
2013-02-22 23:55:00,37.4,23.5,29.76,WNW,292,10.0,11.0,57,0.00,,,0.00,Wunderground v.1.15,2013-02-23 07:55:00,
2013-02-22 23:57:00,37.4,23.5,29.76,WNW,294,9.0,11.0,57,0.00,,,0.00,Wunderground v.1.15,2013-02-23 07:57:00,